ATLAS 5 CENTAUR DEB, 44679

Orbit data source: Space-Track

ATLAS 5 CENTAUR DEB, 44679 is space debris in HEO originally from a launch on Wed, 17 Oct 2018 UTC launched from the Air Force Eastern Test Range (AFETR). Debris objects in space refer to the collection of defunct objects orbiting the Earth. Examples of debris include non-operational satellites, rocket bodies, and fragments generated from explosions, collisions, or faulty payload assembly.

Loading next visibility...
ATLAS 5 CENTAUR DEB details
Identifier
44679, 2018-079AR
Orbit
HEO
Last TLE update16 hours ago
Origin
Flag of USULA (US)
ManufacturerULA Decatur
MissionSpacecraft
Bus & MotorUnknown
MassUnknown
Launch date (UTC)
2018-10-17 (6 years ago)
Launch vehicleUnknown
Launch site
Air Force Eastern Test Range (AFETR)
Object type
Payload
Rocket body
Debris
Shape & HBRUnknown
Radar Cross SectionRCS unknown

Expand to show TLE details & history

TLE from 16 hours ago
0 ATLAS 5 CENTAUR DEB
1 44679U 18079AR  24348.50720962 -.00000116  00000-0  00000-0 0  9996
2 44679  12.6714  84.4717 4719980 214.3911 103.1838  1.79404156 36799
Epoch: 2024-12-13T12:10Z
Definitive object data (Epoch: 2024-12-13T12:10:22.911Z)
Latitude-0°
Longitude179.12094°
Altitude30,064.456 km
Speed2.818 km/s
True Right ascension05h 37m 33s
True Declination0° 00' 00"
Sunlit
Object was in daylight at TLE epoch
Visualization TLE readout
Latitude6.96129°
Longitude-148.07116°
Altitude35,737.369 km
Speed2.235 km/s
Apparent Right ascension08h 15m 21s
Apparent Declination1° 26' 44"
Sunlit
Object is in daylight
Visualization observer readout
Local Sidereal Time02:51:40
Azimuth94.741° ESE
Elevation7.884°
Doppler factor1
Orbital elements
Apogee altitude35,738.398 km
Perigee altitude8,728.959 km
Semi-major axis28,611.816 km
Eccentricity0.471998
Inclination12.6714°
RAAN84.4717°
Arg. of periapsis214.3911°
True anomaly145.55117°
Mean anomaly103.1838°
Eccentric anomaly125.26465°
Mean motion0.44846 °/min
BSTARUnknown
Orbital period802.74 mins
Loading maneuver chart data...

ATLAS 5 CENTAUR DEB Visibility forecast

Observer location: undefined°, undefined

Span
Click to sort rows by Start time (UTC) header in descending order
Start Az.
Max El. time (UTC)
Max El. Az.
Max El.
End time (UTC)
End Az.
232 mins2024-12-14 04:49:48.764Z95.365° ESE2024-12-14 07:11:48.764Z96.589° ESE15.89°2024-12-14 08:41:48.764Z92.435° ESE
210 mins2024-12-15 00:48:48.764Z208.834° SW2024-12-15 04:18:48.764Z126.616° SE24.137°2024-12-15 04:18:48.764Z126.616° SE
|